Pietro Novelli — IOTQ — position and weather

sailwx.info

Track history (hours):
 
Tides and Currents Weather Stations Pressure Air Temp Water Temp Dewpoint Dewpoint Depression Visibility Wind Speed Wind Dir Waves Ship Positions

Pietro Novelli

Last reported at 2014-Oct-20 17:33 UTC. Time now 2014-Oct-20 18:07 UTC.
Position N 38°13' E 015°15'.

Length 91 m; draft 3.8 m.

Type: Ship. MMSI: 247000300.

Date/timePositionNaut miles runAvg speedWind from/ knotsBaromVisibWave heightAir tempDewpointWater temp
2014-Oct-20 17:33N 38°13' E 015°15'1211.7
2014-Oct-20 16:33N 38°22' E 015°05'10 0.4
2014-Oct-19 17:15N 38°16' E 015°15'1313.9
2014-Oct-19 16:18N 38°24' E 015°01'1 0.1
2014-Oct-19 06:26N 38°25' E 015°00'16 1.5
2014-Oct-18 19:33N 38°13' E 015°15'0 0.0
2014-Oct-18 18:33N 38°13' E 015°15'0 0.0
2014-Oct-18 17:33N 38°13' E 015°15'0 0.0
2014-Oct-18 16:33N 38°13' E 015°15'0 0.0
2014-Oct-18 15:33N 38°13' E 015°15'0 0.0
2014-Oct-18 14:33N 38°13' E 015°15'0 0.0
2014-Oct-18 13:33N 38°13' E 015°15'0 0.0
2014-Oct-18 12:33N 38°13' E 015°15'0 0.0
2014-Oct-18 11:33N 38°13' E 015°15'0 0.0
2014-Oct-18 10:33N 38°13' E 015°15'0 0.0
2014-Oct-18 09:33N 38°13' E 015°15'0 0.0
2014-Oct-18 08:33N 38°13' E 015°15'0 0.0
2014-Oct-18 07:33N 38°13' E 015°15'0 0.0
2014-Oct-18 06:33N 38°13' E 015°15'0 0.0
2014-Oct-18 05:33N 38°13' E 015°15'3 0.2
2014-Oct-17 17:18N 38°16' E 015°16'1314.0
2014-Oct-17 16:22N 38°23' E 015°02'2 0.2
2014-Oct-17 06:27N 38°24' E 015°00'1213.0
2014-Oct-17 05:33N 38°18' E 015°13'5 5.1
2014-Oct-17 04:33N 38°13' E 015°15'0 0.0
2014-Oct-17 03:33N 38°13' E 015°15'0 0.0
2014-Oct-17 02:33N 38°13' E 015°15'0 0.0
2014-Oct-17 01:33N 38°13' E 015°15'0 0.0
2014-Oct-17 00:33N 38°13' E 015°15'0 0.0
2014-Oct-16 23:33N 38°13' E 015°15'0 0.0
2014-Oct-16 22:33N 38°13' E 015°15'0 0.0
2014-Oct-16 21:33N 38°13' E 015°15'0 0.0
2014-Oct-16 20:33N 38°13' E 015°15'0 0.0
2014-Oct-16 19:33N 38°13' E 015°15'0 0.0
2014-Oct-16 18:33N 38°13' E 015°15'0 0.1
2014-Oct-16 17:33N 38°13' E 015°15'17 1.5
2014-Oct-16 06:27N 38°25' E 014°60'15 1.2
2014-Oct-15 17:20N 38°15' E 015°16'13 1.2
2014-Oct-15 06:17N 38°24' E 015°02'1013.8
2014-Oct-15 05:33N 38°18' E 015°13'3 0.3
2014-Oct-14 17:18N 38°15' E 015°16'1114.0
2014-Oct-14 16:33N 38°22' E 015°05'8 0.9
2014-Oct-14 07:33N 38°28' E 014°59'3 3.3
2014-Oct-14 06:33N 38°25' E 014°58'1413.6
2014-Oct-14 05:33N 38°17' E 015°13'5 0.4
2014-Oct-13 18:33N 38°13' E 015°15'0 0.2
2014-Oct-13 17:33N 38°13' E 015°15'1212.0
2014-Oct-13 16:32N 38°22' E 015°04'8 7.1
2014-Oct-13 15:24N 38°28' E 014°57'23 4.6
2014-Oct-13 10:30N 38°33' E 014°29'9 8.9
2014-Oct-13 09:29N 38°33' E 014°40'11 7.4
2014-Oct-13 08:03N 38°33' E 014°54'9 5.5
2014-Oct-13 06:30N 38°25' E 014°59'1313.7
2014-Oct-13 05:33N 38°18' E 015°13'5 0.4
2014-Oct-12 18:25N 38°13' E 015°15'1 0.8
2014-Oct-12 17:33N 38°13' E 015°15'13 1.2
2014-Oct-12 06:12N 38°23' E 015°04'13 1.1
2014-Oct-11 18:33N 38°13' E 015°15'0 0.0
2014-Oct-11 17:33N 38°13' E 015°15'0 0.0
2014-Oct-11 16:33N 38°13' E 015°15'0 0.0
2014-Oct-11 15:33N 38°13' E 015°15'0 0.0
2014-Oct-11 14:33N 38°13' E 015°15'0 0.0
2014-Oct-11 13:33N 38°13' E 015°15'0 0.0
2014-Oct-11 12:33N 38°13' E 015°15'0 0.0
2014-Oct-11 11:33N 38°13' E 015°15'0 0.0
2014-Oct-11 10:34N 38°13' E 015°15'0 0.0
2014-Oct-11 09:33N 38°13' E 015°15'0 0.0
2014-Oct-11 08:33N 38°13' E 015°15'0 0.0
2014-Oct-11 07:33N 38°13' E 015°15'0 0.0
2014-Oct-11 06:33N 38°13' E 015°15'0 0.0
2014-Oct-11 05:33N 38°13' E 015°15'0 0.0
2014-Oct-11 04:33N 38°13' E 015°15'0 0.0
2014-Oct-10 18:25N 38°13' E 015°15'0 0.2
2014-Oct-10 17:33N 38°13' E 015°15'  
Track history (hours):
 
Tides and Currents Weather Stations Pressure Air Temp Water Temp Dewpoint Dewpoint Depression Visibility Wind Speed Wind Dir Waves Ship Positions

Pietro Novelli

Last reported at 2014-Oct-20 17:33 UTC. Time now 2014-Oct-20 18:07 UTC.
Position N 38°13' E 015°15'.

Length 91 m; draft 3.8 m.

Type: Ship. MMSI: 247000300.

Date/timePositionNaut miles runAvg speedWind from/ knotsBaromVisibWave heightAir tempDewpointWater temp
2014-Oct-20 17:33N 38°13' E 015°15'1211.7
2014-Oct-20 16:33N 38°22' E 015°05'10 0.4
2014-Oct-19 17:15N 38°16' E 015°15'1313.9
2014-Oct-19 16:18N 38°24' E 015°01'1 0.1
2014-Oct-19 06:26N 38°25' E 015°00'16 1.5
2014-Oct-18 19:33N 38°13' E 015°15'0 0.0
2014-Oct-18 18:33N 38°13' E 015°15'0 0.0
2014-Oct-18 17:33N 38°13' E 015°15'0 0.0
2014-Oct-18 16:33N 38°13' E 015°15'0 0.0
2014-Oct-18 15:33N 38°13' E 015°15'0 0.0
2014-Oct-18 14:33N 38°13' E 015°15'0 0.0
2014-Oct-18 13:33N 38°13' E 015°15'0 0.0
2014-Oct-18 12:33N 38°13' E 015°15'0 0.0
2014-Oct-18 11:33N 38°13' E 015°15'0 0.0
2014-Oct-18 10:33N 38°13' E 015°15'0 0.0
2014-Oct-18 09:33N 38°13' E 015°15'0 0.0
2014-Oct-18 08:33N 38°13' E 015°15'0 0.0
2014-Oct-18 07:33N 38°13' E 015°15'0 0.0
2014-Oct-18 06:33N 38°13' E 015°15'0 0.0
2014-Oct-18 05:33N 38°13' E 015°15'3 0.2
2014-Oct-17 17:18N 38°16' E 015°16'1314.0
2014-Oct-17 16:22N 38°23' E 015°02'2 0.2
2014-Oct-17 06:27N 38°24' E 015°00'1213.0
2014-Oct-17 05:33N 38°18' E 015°13'5 5.1
2014-Oct-17 04:33N 38°13' E 015°15'0 0.0
2014-Oct-17 03:33N 38°13' E 015°15'0 0.0
2014-Oct-17 02:33N 38°13' E 015°15'0 0.0
2014-Oct-17 01:33N 38°13' E 015°15'0 0.0
2014-Oct-17 00:33N 38°13' E 015°15'0 0.0
2014-Oct-16 23:33N 38°13' E 015°15'0 0.0
2014-Oct-16 22:33N 38°13' E 015°15'0 0.0
2014-Oct-16 21:33N 38°13' E 015°15'0 0.0
2014-Oct-16 20:33N 38°13' E 015°15'0 0.0
2014-Oct-16 19:33N 38°13' E 015°15'0 0.0
2014-Oct-16 18:33N 38°13' E 015°15'0 0.1
2014-Oct-16 17:33N 38°13' E 015°15'17 1.5
2014-Oct-16 06:27N 38°25' E 014°60'15 1.2
2014-Oct-15 17:20N 38°15' E 015°16'13 1.2
2014-Oct-15 06:17N 38°24' E 015°02'1013.8
2014-Oct-15 05:33N 38°18' E 015°13'3 0.3
2014-Oct-14 17:18N 38°15' E 015°16'1114.0
2014-Oct-14 16:33N 38°22' E 015°05'8 0.9
2014-Oct-14 07:33N 38°28' E 014°59'3 3.3
2014-Oct-14 06:33N 38°25' E 014°58'1413.6
2014-Oct-14 05:33N 38°17' E 015°13'5 0.4
2014-Oct-13 18:33N 38°13' E 015°15'0 0.2
2014-Oct-13 17:33N 38°13' E 015°15'1212.0
2014-Oct-13 16:32N 38°22' E 015°04'8 7.1
2014-Oct-13 15:24N 38°28' E 014°57'23 4.6
2014-Oct-13 10:30N 38°33' E 014°29'9 8.9
2014-Oct-13 09:29N 38°33' E 014°40'11 7.4
2014-Oct-13 08:03N 38°33' E 014°54'9 5.5
2014-Oct-13 06:30N 38°25' E 014°59'1313.7
2014-Oct-13 05:33N 38°18' E 015°13'5 0.4
2014-Oct-12 18:25N 38°13' E 015°15'1 0.8
2014-Oct-12 17:33N 38°13' E 015°15'13 1.2
2014-Oct-12 06:12N 38°23' E 015°04'13 1.1
2014-Oct-11 18:33N 38°13' E 015°15'0 0.0
2014-Oct-11 17:33N 38°13' E 015°15'0 0.0
2014-Oct-11 16:33N 38°13' E 015°15'0 0.0
2014-Oct-11 15:33N 38°13' E 015°15'0 0.0
2014-Oct-11 14:33N 38°13' E 015°15'0 0.0
2014-Oct-11 13:33N 38°13' E 015°15'0 0.0
2014-Oct-11 12:33N 38°13' E 015°15'0 0.0
2014-Oct-11 11:33N 38°13' E 015°15'0 0.0
2014-Oct-11 10:34N 38°13' E 015°15'0 0.0
2014-Oct-11 09:33N 38°13' E 015°15'0 0.0
2014-Oct-11 08:33N 38°13' E 015°15'0 0.0
2014-Oct-11 07:33N 38°13' E 015°15'0 0.0
2014-Oct-11 06:33N 38°13' E 015°15'0 0.0
2014-Oct-11 05:33N 38°13' E 015°15'0 0.0
2014-Oct-11 04:33N 38°13' E 015°15'0 0.0
2014-Oct-10 18:25N 38°13' E 015°15'0 0.2
2014-Oct-10 17:33N 38°13' E 015°15'  

Dump ship's entire track history